GFSMA_sfc_thetae_000.txt.gz
Theta_e
332 331 329 327 327 328 327 327 326 322 316 314 316 316 315 316 318 317 318 313 314 315 318 319 321 322 324 326 329 331 332 333 334 335 335 334 334 334 335 335 335 335 335
330 327 324 323 323 323 325 325 323 319 316 315 315 316 314 315 315 316 315 315 312 315 318 319 321 323 323 324 326 327 328 331 332 333 334 334 333 333 333 333 334 334 335
327 326 323 322 323 324 326 326 324 320 317 314 314 314 314 314 313 314 313 314 313 314 315 316 318 318 318 319 320 321 324 327 328 330 332 333 333 333 332 332 332 333 334
327 326 323 322 323 324 323 322 322 319 317 314 313 313 313 313 313 313 313 312 312 312 313 315 315 314 315 316 316 317 319 322 324 326 330 331 332 332 332 332 332 332 333
325 324 322 322 324 322 321 321 320 319 316 314 312 313 313 313 313 311 312 313 313 312 312 312 313 312 312 312 311 313 316 321 322 324 326 330 330 331 331 332 332 331 331
320 321 321 322 323 322 320 319 320 319 317 315 311 310 312 313 313 312 311 311 311 313 313 313 314 312 311 308 308 309 313 315 316 322 322 324 325 329 330 330 331 331 332
318 318 318 319 320 319 320 321 319 318 317 316 312 311 311 313 313 312 312 311 310 312 313 313 312 311 311 308 306 308 310 313 314 315 318 319 318 321 323 328 329 330 330
315 314 315 315 316 315 317 318 318 316 317 317 311 309 305 308 311 311 311 310 311 311 311 312 309 308 308 308 309 306 308 309 311 315 314 318 315 317 318 321 326 327 329
312 313 313 314 314 314 312 314 315 314 311 315 317 310 305 303 307 310 310 310 310 310 311 309 306 305 305 307 306 308 306 307 309 312 312 316 315 314 315 318 321 325 326
311 311 311 312 312 312 311 311 310 311 311 309 312 313 314 311 304 302 307 309 309 309 309 306 305 305 305 305 304 305 305 305 307 311 310 310 313 314 314 316 318 318 322
310 309 310 310 310 310 310 310 310 310 310 309 308 308 307 308 308 303 302 302 306 306 305 305 306 305 306 305 305 305 304 304 305 309 310 311 313 314 315 315 316 316 317
307 308 308 309 309 308 307 307 307 306 306 305 304 303 302 296 298 299 299 301 302 302 303 304 303 304 305 305 304 301 303 302 302 305 307 309 310 313 312 312 313 315 315
304 306 307 306 306 306 305 306 306 304 300 299 298 296 295 293 293 293 295 295 295 300 301 302 303 303 303 304 303 301 303 298 300 303 303 306 307 308 310 311 312 312 313
304 306 305 305 305 305 305 305 301 298 300 299 298 296 295 296 294 292 290 290 289 293 297 298 303 302 302 302 302 300 301 298 299 301 301 303 303 302 303 304 306 307 307
303 304 304 303 301 301 301 300 298 297 297 296 297 297 297 296 295 294 294 293 290 288 289 295 297 302 301 301 301 301 302 300 299 301 299 301 301 300 299 300 302 304 306
303 302 300 299 299 299 300 299 297 296 295 295 294 293 294 295 295 295 294 293 293 290 287 292 294 296 298 297 299 299 299 299 298 298 299 298 299 299 299 299 300 300 302
300 299 299 298 298 296 296 295 295 295 294 293 294 294 293 294 293 293 293 293 292 291 288 291 293 295 295 296 297 298 298 298 299 297 297 297 297 297 297 297 298 299 299
299 299 297 296 296 295 294 293 293 293 292 291 292 292 291 290 291 292 291 291 291 292 290 288 291 292 293 295 296 296 295 296 297 296 297 296 296 295 295 295 296 297 297
296 296 296 295 294 294 294 293 292 292 292 292 291 290 290 290 289 290 290 290 290 289 290 288 288 291 292 293 293 294 294 295 295 295 295 295 295 296 296 295 296 297 297
295 295 294 293 293 292 291 291 291 291 290 290 289 289 289 288 288 288 288 288 288 288 288 287 287 288 289 291 291 290 290 293 292 293 293 292 293 295 295 295 295 296 297
292 291 291 291 291 290 289 289 289 289 289 289 288 288 289 288 286 286 285 286 286 286 286 286 286 287 287 288 288 290 289 290 291 293 292 294 294 294 295 293 294 295 295
290 290 290 289 289 288 286 286 286 287 287 287 287 287 287 287 286 286 285 284 285 284 285 284 284 283 285 286 287 286 286 285 283 293 291 290 293 292 294 295 293 294 294
290 289 289 289 288 288 284 283 283 285 285 286 286 286 285 285 285 285 285 285 284 284 282 283 281 283 283 285 285 285 285 285 284 288 289 288 291 290 293 293 292 293 293
288 288 288 287 287 286 283 282 281 284 285 285 285 285 284 284 285 284 283 282 283 284 285 285 284 284 285 286 286 287 286 286 287 287 289 284 289 289 291 292 292 292 293
288 287 287 286 285 285 283 281 281 283 283 283 284 284 283 282 283 283 283 282 282 283 285 286 285 285 285 285 286 286 284 283 283 284 288 286 287 288 289 291 293 291 291
287 287 285 286 284 283 282 281 281 281 280 281 282 282 282 283 283 282 282 282 281 282 283 285 286 286 286 286 285 286 286 283 283 282 286 284 284 285 284 292 292 293 294

GFSMA_sfc_thetae_003.txt.gz
Theta_e
331 328 327 324 324 324 324 324 324 323 320 317 315 316 316 316 316 316 316 316 314 315 317 318 320 321 322 323 325 327 330 331 332 333 335 335 335 334 333 334 333 333 335
330 326 324 323 322 323 323 323 323 322 319 317 316 316 316 315 315 317 315 315 315 317 318 319 321 322 322 321 322 324 326 328 330 331 333 334 334 334 333 333 333 334 334
327 327 324 323 323 325 326 324 323 323 321 318 316 315 315 316 315 315 314 314 313 316 317 318 319 318 317 317 317 317 319 322 325 328 331 332 332 332 332 332 332 333 333
327 327 323 323 325 325 323 323 321 320 319 318 318 315 315 315 315 314 314 314 313 313 315 317 316 316 316 314 313 314 316 319 321 323 327 330 330 331 332 332 332 332 332
324 324 323 324 329 325 326 325 323 323 320 319 318 318 316 315 316 313 313 315 316 313 314 317 317 316 314 313 310 310 313 314 319 322 325 328 331 331 331 331 332 332 332
323 323 322 325 325 323 324 324 326 323 323 321 317 316 319 317 317 317 315 313 314 316 314 314 312 311 315 312 310 309 310 313 315 316 321 323 324 325 330 331 331 331 332
319 319 318 320 321 320 323 324 322 321 320 322 320 318 319 319 318 316 317 315 315 315 316 315 315 313 311 313 310 308 309 311 314 315 316 318 322 320 322 324 330 329 330
317 316 316 315 317 315 319 320 321 318 318 320 316 315 309 312 316 316 316 316 316 315 314 315 315 314 311 309 310 310 307 308 310 313 315 316 321 318 319 319 320 325 329
314 314 314 314 316 316 314 317 316 316 312 315 318 312 305 304 310 315 317 315 315 315 314 314 314 311 309 309 308 308 309 307 307 311 314 314 317 316 317 317 318 321 324
312 311 311 312 314 314 314 314 311 314 312 308 312 310 313 309 305 304 312 312 313 311 315 314 313 308 307 307 310 306 304 305 307 312 312 313 312 316 316 316 317 319 320
311 310 310 310 311 310 311 312 311 308 307 307 305 306 306 306 306 302 299 306 310 310 309 310 310 307 307 307 307 307 305 305 306 309 311 311 311 312 315 316 317 318 318
308 309 307 309 310 310 308 307 307 307 304 304 302 301 299 297 296 296 296 300 302 305 307 307 306 306 307 307 307 304 303 303 303 305 306 308 310 312 315 317 316 315 316
305 306 307 307 306 306 306 307 305 302 299 296 297 298 298 296 295 294 291 291 293 298 300 304 304 305 305 307 306 304 303 300 300 304 304 306 306 308 311 312 314 314 315
305 306 305 306 305 305 304 304 302 302 300 299 297 296 296 296 296 294 292 291 290 291 294 296 302 303 303 305 304 301 302 299 300 302 302 305 302 300 302 303 305 307 308
303 304 304 303 303 302 301 301 299 298 299 298 297 297 296 297 296 296 295 294 290 287 290 295 296 302 303 303 303 302 302 300 300 300 300 301 301 299 299 300 301 302 303
303 303 302 301 300 299 299 297 297 298 296 297 296 295 294 295 295 295 294 295 294 290 287 293 293 297 299 298 301 302 301 301 299 298 298 300 300 300 300 300 301 302 302
301 300 299 298 297 296 296 296 296 295 295 295 295 295 294 294 293 293 294 293 292 292 289 291 294 296 297 298 298 300 300 300 300 296 296 296 297 298 298 298 298 299 300
299 299 297 296 296 296 295 295 294 293 293 292 292 292 292 292 293 292 292 291 291 292 290 288 291 293 295 297 298 298 297 297 298 297 296 296 296 296 295 295 296 296 297
297 297 296 295 294 294 293 293 292 292 292 291 291 291 290 290 289 290 290 290 290 290 290 289 289 292 293 294 294 296 296 298 296 297 296 296 296 296 296 295 296 296 297
294 293 292 292 292 291 291 291 291 290 289 290 290 290 290 289 289 288 288 288 288 288 288 288 288 289 290 292 292 291 292 294 294 294 294 293 295 295 295 295 295 295 296
292 292 291 291 291 291 289 289 289 288 287 288 289 289 290 290 288 287 286 286 286 285 286 286 286 287 289 289 289 291 290 292 294 295 294 295 296 296 295 294 295 295 295
291 291 291 290 290 289 285 285 285 285 285 285 285 287 288 289 288 288 287 287 286 283 282 284 284 285 286 287 289 288 288 287 285 293 291 291 294 293 295 296 294 293 293
291 290 290 290 289 289 284 283 283 284 283 284 285 285 285 286 287 286 286 286 285 285 283 283 281 282 283 285 286 286 286 286 286 289 289 288 292 291 294 293 293 292 292
290 289 289 289 288 287 285 283 282 283 283 283 284 284 284 285 286 285 284 284 284 284 284 284 284 284 285 286 286 286 286 286 287 288 290 285 291 290 292 293 292 292 292
289 289 288 288 286 286 285 283 282 282 281 281 282 283 284 283 283 284 282 282 282 283 285 286 286 286 286 286 286 286 284 283 283 284 288 286 288 288 290 291 292 291 291
289 288 287 286 285 284 285 282 282 281 280 280 282 282 283 283 283 283 283 282 281 282 283 284 285 286 287 287 285 285 285 282 282 282 287 285 286 286 284 290 291 292 292

GFSMA_sfc_thetae_006.txt.gz
Theta_e
327 326 324 322 321 321 320 319 318 319 318 316 314 312 313 313 312 312 312 317 317 316 318 321 323 325 325 326 327 329 331 331 333 334 333 333 334 335 335 334 333 333 333
326 324 322 322 320 320 319 318 317 318 318 316 314 313 312 312 311 312 311 310 317 318 319 321 322 323 324 325 325 326 327 329 331 333 333 333 333 333 334 334 333 333 333
324 324 322 322 322 322 321 320 320 318 317 318 315 314 313 313 312 311 312 311 309 317 320 322 322 323 323 322 321 321 322 324 327 329 332 332 332 332 333 332 333 333 333
324 323 322 322 322 323 320 319 318 316 315 315 314 314 311 311 311 311 311 310 309 309 315 320 322 322 320 320 319 318 319 320 322 324 328 331 331 331 331 331 332 331 332
324 321 320 321 322 320 319 319 317 316 315 314 315 313 313 311 310 312 310 310 310 310 309 315 319 319 320 320 318 317 317 317 319 322 324 327 330 330 329 330 331 331 331
320 319 318 319 321 318 316 316 317 315 314 314 315 315 314 314 313 310 310 312 310 310 309 309 312 313 317 318 316 315 315 316 316 317 319 323 327 329 329 329 329 330 331
317 315 314 315 314 313 313 313 311 310 310 312 311 310 310 312 313 313 313 311 310 310 309 309 310 308 309 316 317 315 314 314 315 316 317 318 320 324 325 325 329 329 330
315 312 313 312 311 310 309 310 310 308 307 308 306 306 301 304 308 309 311 312 311 311 310 310 309 308 308 308 309 315 313 314 314 315 314 316 319 323 321 321 322 324 329
313 312 311 312 311 308 306 306 307 305 303 304 305 302 298 296 301 305 306 308 309 312 312 313 311 310 309 306 309 310 312 311 312 312 312 314 317 318 321 319 318 319 322
311 309 309 309 308 307 305 306 306 305 303 300 302 304 300 298 295 295 301 304 306 308 311 311 311 310 309 306 308 308 308 307 309 310 311 312 314 316 319 317 317 318 320
308 308 306 305 306 305 305 305 303 302 302 299 298 296 295 295 296 292 291 293 297 300 305 307 308 307 308 304 305 304 305 304 306 310 312 312 313 314 314 317 317 317 319
304 305 306 305 305 304 303 303 301 300 297 297 297 296 294 293 292 291 290 290 291 294 298 300 304 304 305 305 306 305 304 303 305 306 308 311 312 312 313 314 315 317 317
302 302 303 303 303 302 303 303 302 300 298 295 294 294 294 293 293 292 290 289 288 292 293 297 301 303 304 304 303 304 303 301 301 303 305 307 308 310 313 315 316 316 316
301 302 302 302 301 300 299 299 297 298 296 296 296 296 293 293 293 293 291 289 286 288 291 291 298 300 302 304 303 302 301 299 300 302 302 304 305 302 303 306 308 310 311
301 300 300 299 299 299 298 296 295 294 294 294 294 294 293 293 294 293 292 292 289 285 285 288 294 298 300 301 302 300 300 299 298 299 300 300 302 302 302 301 302 303 304
299 299 298 298 298 297 297 296 294 295 294 294 294 294 293 294 293 293 293 292 292 289 285 290 291 293 295 297 300 300 299 301 298 297 298 297 298 299 300 300 300 301 301
297 296 297 296 296 295 295 295 293 294 292 291 292 292 292 293 292 292 292 291 289 289 286 288 290 291 292 294 295 295 297 297 296 297 296 296 296 297 298 298 297 297 298
296 295 295 294 294 294 294 293 292 292 291 290 290 290 290 291 289 289 289 289 288 288 286 284 286 288 287 289 291 293 295 296 295 297 296 296 296 295 296 296 295 295 296
295 294 292 291 290 290 289 289 289 289 287 286 287 287 287 287 286 286 287 286 287 288 287 285 284 286 286 287 288 290 291 291 295 297 296 295 295 296 295 295 295 295 295
292 291 291 291 290 290 289 288 288 286 286 285 285 285 285 286 286 286 286 285 285 283 283 283 283 283 284 286 287 285 285 287 288 292 293 293 294 295 296 295 294 295 295
291 290 290 289 289 289 287 285 285 284 283 283 283 284 285 287 289 287 286 284 282 281 280 281 281 282 283 283 283 286 286 286 287 289 288 288 289 291 293 295 295 295 295
290 289 289 288 288 288 285 284 283 281 282 282 280 281 283 286 286 288 288 287 285 280 280 279 279 279 280 281 283 283 282 281 279 286 285 283 288 287 289 291 294 292 292
289 288 288 288 287 286 286 285 283 281 280 280 280 280 281 284 284 284 285 285 285 286 283 281 279 279 279 280 281 280 279 280 279 283 283 278 281 283 287 291 292 292 292
288 287 287 287 285 286 286 286 283 280 279 279 279 279 280 280 282 283 282 281 281 282 283 283 282 282 282 283 283 283 282 283 282 283 284 280 279 281 281 284 291 292 291
287 287 287 285 284 283 286 285 283 279 279 278 279 280 281 280 282 283 281 279 279 281 285 286 286 286 286 286 286 283 280 280 279 280 282 280 278 279 281 281 284 291 291
287 286 285 284 285 283 285 285 282 279 276 278 279 280 281 282 281 281 280 280 279 281 281 281 281 281 283 285 286 285 282 278 278 277 281 282 280 280 278 280 283 285 281

GFSMA_sfc_thetae_012.txt.gz
Theta_e
315 315 315 314 313 313 312 311 311 311 312 313 313 311 309 307 308 308 307 317 322 323 324 323 323 323 324 328 330 331 330 332 333 334 336 336 334 334 334 334 335 334 334
315 315 314 314 314 314 314 313 312 311 312 313 313 313 311 308 307 307 307 307 319 322 323 323 323 323 323 325 328 329 329 329 330 333 334 334 332 332 332 333 334 334 333
314 314 313 311 312 313 313 313 312 312 311 312 310 311 311 311 309 307 307 307 308 318 320 323 325 325 324 324 327 328 329 329 329 330 333 333 332 332 330 331 333 333 333
314 311 308 308 310 310 310 309 310 309 308 307 307 308 308 309 309 308 308 307 307 308 313 319 322 323 325 325 323 324 325 326 325 326 330 331 332 330 331 331 331 331 332
311 308 307 307 308 307 306 307 305 305 304 303 305 304 305 306 307 310 308 308 307 307 307 311 318 319 322 324 323 323 323 323 323 323 324 328 329 330 330 330 330 330 331
311 307 306 306 307 305 303 303 302 302 302 302 304 304 302 304 304 303 304 307 307 308 307 306 306 310 316 321 323 323 322 323 323 322 322 323 327 328 329 329 330 329 330
309 306 305 305 305 303 301 301 300 300 300 300 298 299 299 300 300 299 301 302 302 305 303 303 305 308 307 316 320 322 322 322 322 321 323 323 324 325 327 329 329 330 329
305 305 303 301 302 301 299 299 299 299 299 299 296 295 293 296 296 298 296 298 295 299 299 301 304 305 308 307 308 318 321 321 321 322 323 322 322 322 323 327 327 327 328
303 302 301 300 300 300 298 298 299 298 296 297 297 295 291 288 291 295 294 293 294 294 295 298 300 302 306 307 307 307 312 315 319 321 322 321 321 319 321 323 324 323 323
301 301 300 299 299 299 297 298 300 297 296 294 295 298 294 294 291 288 291 292 292 293 293 295 295 297 304 305 308 306 305 305 310 316 318 320 318 316 316 319 322 321 320
301 301 301 299 298 298 296 295 296 294 294 293 293 293 292 291 291 289 286 286 290 291 292 292 293 296 301 302 303 304 304 304 305 309 312 314 313 314 315 316 318 319 319
298 299 299 296 296 295 295 294 293 293 294 295 294 293 291 290 288 287 287 287 287 288 290 291 292 294 297 299 303 305 304 303 303 305 306 309 311 313 313 314 314 318 318
297 297 295 295 294 295 294 293 292 292 293 294 294 293 294 293 291 292 290 289 286 287 287 290 291 292 297 296 299 301 302 301 302 303 304 305 310 311 312 312 313 314 315
294 295 294 294 294 294 293 292 291 290 291 290 289 289 292 292 293 292 291 287 285 287 286 286 289 291 293 294 299 300 301 300 300 300 301 302 304 304 304 304 305 307 309
295 293 293 292 292 293 293 292 290 289 289 288 288 289 290 291 293 292 291 289 285 281 284 288 285 290 291 292 295 296 296 299 298 297 299 299 302 301 301 302 302 302 303
293 292 291 291 291 291 291 290 289 289 288 288 289 287 286 287 288 289 291 290 288 286 282 285 285 287 288 289 292 294 296 297 297 296 296 298 298 301 300 299 300 300 300
291 292 292 291 289 288 288 287 287 288 286 284 284 283 283 283 282 283 284 285 286 287 284 285 286 285 284 285 286 288 291 296 297 295 296 297 297 297 298 298 298 298 297
291 291 292 288 287 286 286 285 285 284 283 282 282 282 282 283 281 281 281 281 282 283 283 280 282 283 283 284 285 284 288 290 293 295 295 296 297 296 295 296 296 296 296
291 292 288 287 287 286 286 284 283 283 281 281 281 281 280 280 279 280 280 281 281 283 282 280 280 281 282 283 283 284 285 286 289 293 293 293 295 296 296 295 295 295 295
293 292 288 287 288 286 285 284 283 281 280 281 281 281 280 279 278 279 280 280 281 280 280 279 278 279 279 282 282 282 280 282 282 287 291 290 292 294 295 295 294 295 295
293 289 287 287 286 284 284 282 282 281 280 279 280 280 279 280 282 281 281 280 281 280 280 279 278 278 277 277 278 280 278 279 280 283 284 284 285 286 289 290 293 294 294
288 288 286 285 283 285 285 285 283 279 280 279 277 278 278 280 280 282 282 283 282 281 280 280 279 277 276 276 277 277 276 276 276 281 281 280 283 283 285 288 292 292 293
289 284 283 283 282 282 286 287 285 281 279 278 277 277 278 279 280 279 281 282 281 282 281 281 279 277 277 277 278 277 276 276 276 280 279 277 278 280 282 287 290 292 291
284 282 282 282 281 282 285 285 284 279 278 278 278 278 277 277 279 279 279 280 280 280 280 280 279 279 279 279 279 280 279 278 280 281 281 275 275 276 278 280 288 291 292
282 282 282 281 280 279 283 283 280 276 277 276 278 278 278 278 280 281 279 278 277 279 281 283 284 284 284 285 284 282 280 279 277 278 279 276 276 274 275 277 280 288 290
283 282 281 279 281 277 280 281 280 276 272 275 276 277 278 278 280 281 279 278 276 276 277 277 278 279 280 280 281 280 278 277 276 273 278 277 277 275 272 275 277 278 278

GFSMA_sfc_thetae_015.txt.gz
Theta_e
314 314 312 313 312 312 312 311 311 311 311 312 312 311 311 309 307 306 307 315 318 321 325 325 326 326 327 328 329 330 329 328 329 331 333 334 334 333 333 333 332 334 334
314 313 312 312 310 311 311 310 310 309 309 309 309 309 309 310 308 307 306 306 315 318 321 324 325 326 327 328 328 329 329 329 328 328 330 332 333 332 332 332 332 331 334
313 312 309 307 308 309 308 308 307 306 305 306 305 307 308 307 308 308 307 307 307 312 316 319 321 323 326 327 328 328 328 329 328 327 328 330 331 332 331 331 330 331 331
310 307 306 305 306 307 306 305 305 302 302 302 302 302 303 305 305 306 306 306 305 306 308 313 314 316 319 322 324 327 327 327 328 326 327 328 329 330 330 330 329 330 330
309 306 305 305 306 304 303 303 301 301 300 300 301 300 300 300 302 305 303 304 305 304 305 306 308 310 313 316 319 322 324 326 327 327 326 326 327 328 328 329 329 329 330
309 306 306 304 304 302 300 299 299 299 299 299 302 300 298 300 299 298 299 302 301 302 300 300 301 303 308 313 315 318 322 323 325 327 327 325 325 326 327 327 328 328 329
305 302 302 302 301 299 298 298 298 298 298 298 296 297 297 297 297 296 296 297 297 299 297 298 300 301 301 308 310 315 318 321 323 326 326 325 324 324 325 325 326 328 328
302 301 299 299 299 299 298 297 297 296 297 297 295 293 290 294 294 296 294 295 293 294 296 296 299 297 297 301 306 311 313 315 317 321 323 323 323 323 323 323 323 326 327
300 300 299 298 298 298 296 296 296 295 294 295 295 293 289 287 289 293 293 292 291 291 292 294 296 295 296 300 304 305 307 307 310 313 317 320 322 322 322 321 321 322 324
299 300 299 298 297 296 295 296 296 293 292 291 293 296 292 293 290 287 289 291 291 291 291 291 292 294 296 299 302 304 305 304 305 309 312 315 317 321 321 318 318 318 321
300 298 299 298 297 295 294 293 292 292 292 291 293 293 293 292 290 288 286 285 289 290 290 291 291 291 294 297 298 302 305 304 304 306 308 311 315 319 317 315 316 317 318
297 300 298 295 295 294 292 292 291 290 290 291 292 293 291 290 289 288 288 287 287 290 289 290 289 291 292 294 299 300 302 301 301 303 306 307 310 312 313 313 315 316 318
295 294 294 293 292 293 293 292 290 289 289 288 288 288 289 289 289 290 288 287 287 287 289 288 290 290 292 293 294 298 301 300 299 300 302 305 305 308 311 313 313 314 314
294 294 293 292 292 292 292 291 290 289 288 287 286 286 287 288 289 290 287 285 282 282 286 289 291 292 290 290 293 297 297 297 297 297 298 300 303 303 302 306 310 312 313
294 293 293 293 292 292 291 291 289 288 287 287 286 286 286 286 285 286 286 288 286 279 279 283 284 289 289 289 290 289 293 297 296 295 295 296 298 302 302 301 303 307 308
295 293 293 293 292 292 290 289 288 287 287 287 286 283 282 283 283 283 282 283 284 284 280 284 284 286 287 288 290 287 288 294 296 294 294 294 296 298 301 301 300 301 303
291 292 293 292 291 288 287 286 286 286 285 283 282 282 282 282 281 280 281 281 281 281 279 281 285 285 285 285 285 286 287 287 291 294 294 294 293 295 297 299 298 298 298
292 290 291 291 288 287 286 285 284 284 282 281 281 281 280 282 279 279 279 279 279 280 280 278 280 281 282 284 284 283 287 288 286 292 294 292 293 293 295 296 296 296 296
289 290 291 289 286 287 286 285 283 282 281 281 281 280 280 279 278 277 278 278 279 281 280 279 279 280 280 281 281 282 283 283 285 289 291 293 293 293 294 295 296 296 296
290 289 291 288 287 287 285 283 282 281 280 281 281 280 280 279 277 277 278 278 280 280 280 280 279 279 280 280 280 279 279 280 280 284 287 289 292 292 293 295 295 295 296
291 291 287 287 286 284 283 282 282 281 280 279 280 280 280 280 282 281 279 278 278 278 280 279 279 280 279 277 277 278 278 277 278 279 282 284 285 287 289 290 292 295 295
289 287 288 283 282 284 286 286 285 281 281 280 278 279 279 280 280 281 281 281 280 278 278 278 278 278 278 277 277 277 276 275 274 279 279 279 284 283 284 287 290 292 293
289 285 282 282 281 282 286 286 284 281 279 278 277 277 277 279 279 278 279 280 281 281 281 279 277 277 278 279 277 276 275 275 275 278 278 276 277 280 283 285 288 290 292
284 281 281 281 281 282 283 283 281 277 276 277 276 276 276 277 278 279 279 278 279 279 280 280 280 279 279 280 279 279 278 277 278 279 279 277 273 276 277 280 286 289 291
282 281 282 280 278 277 281 281 280 276 276 276 277 276 277 277 279 281 279 278 278 279 281 281 281 282 283 283 283 280 279 278 277 278 278 276 275 274 275 276 280 287 289
283 281 280 279 280 276 279 280 279 274 270 275 276 276 278 278 280 280 279 277 276 277 278 278 277 279 280 279 281 279 276 275 276 272 277 276 277 275 271 273 275 277 278